Weather History for GMMC - March, 2014

Change the Weather History Date:

Sunday, March 9, 2014

  Actual Average (GMMN) Record (GMMN)
Temperature  
Mean Temperature 72 °F -  
Max Temperature 79 °F 69 °F 82 °F (1997)
Min Temperature 65 °F 47 °F 39 °F (2012)
Cooling Degree Days 7    
Growing Degree Days 22 (Base 50)    
Moisture  
Dew Point 56 °F    
Average Humidity 59    
Maximum Humidity 78    
Minimum Humidity 37    
Precipitation  
Precipitation 0.00 in 0.06 in - ()
Sea Level Pressure  
Sea Level Pressure 29.91 in    
Wind  
Wind Speed 5 mph ()    
Max Wind Speed 18 mph    
Max Gust Speed -    
Visibility 6.1 miles    
Events      
Averages and records for this station are not official NWS values.
T = Trace of Precipitation, MM = Missing Value Source: Averaged Metar Reports

Daily Weather History Graph

Daily Weather History Graph

Search for Another Location

Airport or City:

Trip Planner

Search our weather history database for the weather conditions in past years. The results will help you decide how hot, cold, wet, or windy it might be!

Date:

Astronomy

Mar. 09, 2014 Rise Set
Actual Time 6:49 AM WET 6:33 PM WET
Civil Twilight 6:24 AM WET 6:58 PM WET
Nautical Twilight 5:55 AM WET 7:27 PM WET
Astronomical Twilight 5:26 AM WET 7:56 PM WET
Moon 12:27 PM WET (3/9) 1:51 AM WET (3/9)
Length of Visible Light 12h 34m
Length of Day
11h 44m
First Quarter, 59% of the Moon is Illuminated
Mar 9
First Quarter
Mar 16
Full
Mar 24
Last Quarter
Mar 30
New
Apr 7
First Quarter

Hourly Weather History & Observations

Time (WET) Temp. Dew Point Humidity Pressure Visibility Wind Dir Wind Speed Gust Speed Precip Events Conditions
12:00 AM 66 °F 56 °F 62% 29.93 in 6 mi SSE 2.3 mph - -   Scattered Clouds
12:00 AM 66.2 °F 55.4 °F 68% 29.89 in 6.2 mi SSE 2.3 mph - N/A   Partly Cloudy
1:00 AM 66.2 °F 59.0 °F 78% 29.89 in 6.2 mi SSW 4.6 mph - N/A   Scattered Clouds
2:00 AM 66.2 °F 57.2 °F 73% 29.89 in - SSW 3.5 mph - N/A   Clear
3:00 AM 69 °F 55 °F 51% 29.93 in 6 mi SSW 3.5 mph - -   Scattered Clouds
3:00 AM 69.8 °F 55.4 °F 60% 29.89 in - SSW 3.5 mph - N/A   Clear
4:00 AM 69.8 °F 51.8 °F 53% 29.89 in - West 5.8 mph - N/A   Clear
5:00 AM 71.6 °F 51.8 °F 50% 29.89 in - WSW 5.8 mph - N/A   Clear
6:00 AM 69 °F 51 °F 42% 29.94 in 6 mi SSW 2.3 mph - -   Partly Cloudy
6:00 AM 68.0 °F 51.8 °F 56% 29.89 in - SSW 2.3 mph - N/A   Clear
7:00 AM 66.2 °F 50.0 °F 56% 29.92 in 6.2 mi Calm Calm - N/A   Partly Cloudy
8:00 AM 66.2 °F 51.8 °F 60% 29.95 in 6.2 mi South 2.3 mph - N/A   Mostly Cloudy
9:00 AM 68 °F 51 °F 45% 29.99 in 6 mi South 2.3 mph - -   Overcast
9:00 AM 68.0 °F 51.8 °F 56% 29.98 in 6.2 mi South 2.3 mph - N/A   Mostly Cloudy
10:00 AM 69.8 °F 55.4 °F 60% 30.01 in 6.2 mi ESE 9.2 mph - N/A   Mostly Cloudy
11:00 AM 69.8 °F 55.4 °F 60% 30.01 in 6.2 mi South 6.9 mph - N/A   Mostly Cloudy
12:00 PM 74 °F 58 °F 47% 29.98 in 6 mi South 6.9 mph - -   Scattered Clouds
12:00 PM 73.4 °F 57.2 °F 57% 29.98 in 6.2 mi South 6.9 mph - N/A   Mostly Cloudy
1:00 PM 77.0 °F 51.8 °F 41% 29.98 in 6.2 mi ESE 13.8 mph - N/A   Mostly Cloudy
2:00 PM 78.8 °F 55.4 °F 44% 29.92 in 6.2 mi East 11.5 mph - N/A   Mostly Cloudy
3:00 PM 79 °F 57 °F 37% 29.89 in 6 mi East 18.4 mph - -   Mostly Cloudy
3:00 PM 78.8 °F 57.2 °F 47% 29.89 in 6.2 mi East 18.4 mph - N/A   Mostly Cloudy
4:00 PM 77.0 °F 57.2 °F 50% 29.89 in 6.2 mi ENE 11.5 mph - N/A   Mostly Cloudy
5:00 PM 71.6 °F 59.0 °F 64% 29.89 in 6.2 mi East 6.9 mph - N/A   Mostly Cloudy
6:00 PM 71 °F 59 °F 56% 29.88 in 6 mi ENE 4.6 mph - -   Mostly Cloudy
6:00 PM 69.8 °F 59.0 °F 68% 29.86 in 6.2 mi ENE 4.6 mph - N/A   Mostly Cloudy
7:00 PM 68.0 °F 59.0 °F 73% 29.86 in 6.2 mi NE 6.9 mph - N/A   Mostly Cloudy
8:00 PM 66.2 °F 59.0 °F 78% 29.86 in 6.2 mi East 9.2 mph - N/A   Mostly Cloudy
9:00 PM 66 °F 58 °F 70% 29.87 in 6 mi East 6.9 mph - -   Scattered Clouds
9:00 PM 66.2 °F 59.0 °F 78% 29.86 in 6.2 mi East 9.2 mph - N/A   Scattered Clouds
10:00 PM 66.2 °F 59.0 °F 78% 29.86 in 6.2 mi East 9.2 mph - N/A   Scattered Clouds
11:00 PM 66.2 °F 59.0 °F 78% 29.86 in 6.2 mi South 4.6 mph - N/A   Scattered Clouds